Time,TemperatureF,DewpointF,PressureIn,WindDirection,WindDirectionDegrees,WindSpeedMPH,WindSpeedGustMPH,Humidity,HourlyPrecipIn,Conditions,Clouds,dailyrainin,SoftwareType,DateUTC
2013-02-17 00:03:00,-3.1,-11.6,29.15,SW,226,0.0,0.0,66,0.00,,---,0.00,VWS V14.01,2013-02-17 06:03:00,
2013-02-17 00:09:00,-3.5,-12.0,29.15,SW,226,0.0,0.0,66,0.00,,---,0.00,VWS V14.01,2013-02-17 06:09:00,
2013-02-17 00:15:00,-3.6,-12.1,29.15,SW,226,0.0,0.0,66,0.00,,---,0.00,VWS V14.01,2013-02-17 06:15:00,
2013-02-17 00:20:00,-3.8,-12.3,29.15,SW,226,0.0,0.0,66,0.00,,---,0.00,VWS V14.01,2013-02-17 06:20:00,
2013-02-17 00:25:00,-4.2,-12.6,29.15,SW,226,0.0,0.0,66,0.00,,---,0.00,VWS V14.01,2013-02-17 06:25:00,
2013-02-17 00:31:00,-4.4,-12.8,29.15,SW,226,0.0,0.0,66,0.00,,---,0.00,VWS V14.01,2013-02-17 06:31:00,
2013-02-17 00:37:00,-4.2,-12.6,29.15,SW,226,0.0,0.0,66,0.00,,---,0.00,VWS V14.01,2013-02-17 06:37:00,
2013-02-17 00:42:00,-4.4,-12.8,29.15,SW,226,0.0,0.0,66,0.00,,---,0.00,VWS V14.01,2013-02-17 06:42:00,
2013-02-17 00:48:00,-4.4,-12.8,29.15,SW,226,0.0,0.0,66,0.00,,---,0.00,VWS V14.01,2013-02-17 06:48:00,
2013-02-17 00:53:00,-4.7,-13.2,29.15,SW,226,0.0,0.0,66,0.00,,---,0.00,VWS V14.01,2013-02-17 06:53:00,
2013-02-17 00:58:00,-4.9,-13.3,29.15,SW,226,0.0,0.0,66,0.00,,---,0.00,VWS V14.01,2013-02-17 06:58:00,
2013-02-17 01:03:00,-5.1,-13.5,29.15,SW,226,0.0,0.0,66,0.00,,---,0.00,VWS V14.01,2013-02-17 07:03:00,
2013-02-17 01:09:00,-5.1,-13.5,29.15,SW,226,0.0,0.0,66,0.00,,---,0.00,VWS V14.01,2013-02-17 07:09:00,
2013-02-17 01:14:00,-5.1,-13.5,29.15,SW,226,0.0,0.0,66,0.00,,---,0.00,VWS V14.01,2013-02-17 07:14:00,
2013-02-17 01:19:00,-5.3,-13.7,29.15,SW,226,0.0,0.0,66,0.00,,---,0.00,VWS V14.01,2013-02-17 07:19:00,
2013-02-17 01:25:00,-5.4,-13.9,29.15,SW,226,0.0,0.0,66,0.00,,---,0.00,VWS V14.01,2013-02-17 07:25:00,
2013-02-17 01:30:00,-5.6,-14.0,29.15,SW,226,0.0,0.0,66,0.00,,---,0.00,VWS V14.01,2013-02-17 07:30:00,
2013-02-17 01:36:00,-5.6,-14.0,29.15,SW,226,0.0,0.0,66,0.00,,---,0.00,VWS V14.01,2013-02-17 07:36:00,
2013-02-17 01:41:00,-5.8,-14.2,29.15,SW,226,0.0,0.0,66,0.00,,---,0.00,VWS V14.01,2013-02-17 07:41:00,
2013-02-17 01:46:00,-6.0,-14.4,29.15,SW,226,0.0,0.0,66,0.00,,---,0.00,VWS V14.01,2013-02-17 07:46:00,
2013-02-17 01:52:00,-5.8,-14.2,29.15,SW,226,0.0,0.0,66,0.00,,---,0.00,VWS V14.01,2013-02-17 07:52:00,
2013-02-17 01:58:00,-6.2,-14.6,29.15,SW,226,0.0,0.0,66,0.00,,---,0.00,VWS V14.01,2013-02-17 07:58:00,
2013-02-17 02:04:00,-6.2,-14.6,29.15,SW,226,0.0,0.0,66,0.00,,---,0.00,VWS V14.01,2013-02-17 08:04:00,
2013-02-17 02:09:00,-6.3,-14.7,29.15,SW,226,0.0,0.0,66,0.00,,---,0.00,VWS V14.01,2013-02-17 08:09:00,
2013-02-17 02:14:00,-6.5,-14.9,29.15,SW,226,0.0,0.0,66,0.00,,---,0.00,VWS V14.01,2013-02-17 08:14:00,
2013-02-17 02:19:00,-6.5,-14.9,29.15,SW,226,0.0,0.0,66,0.00,,---,0.00,VWS V14.01,2013-02-17 08:19:00,
2013-02-17 02:25:00,-6.5,-14.9,29.15,SW,226,0.0,0.0,66,0.00,,---,0.00,VWS V14.01,2013-02-17 08:25:00,
2013-02-17 02:30:00,-6.5,-14.9,29.18,SW,226,0.0,0.0,66,0.00,,---,0.00,VWS V14.01,2013-02-17 08:30:00,
2013-02-17 02:35:00,-6.7,-15.1,29.18,SW,226,0.0,0.0,66,0.00,,---,0.00,VWS V14.01,2013-02-17 08:35:00,
2013-02-17 02:41:00,-6.7,-15.1,29.18,SW,226,0.0,0.0,66,0.00,,---,0.00,VWS V14.01,2013-02-17 08:41:00,
2013-02-17 02:47:00,-6.9,-15.2,29.15,SW,226,0.0,0.0,66,0.00,,---,0.00,VWS V14.01,2013-02-17 08:47:00,
2013-02-17 02:53:00,-6.9,-15.2,29.15,SW,226,0.0,0.0,66,0.00,,---,0.00,VWS V14.01,2013-02-17 08:53:00,
2013-02-17 02:59:00,-6.9,-15.2,29.15,SW,226,0.0,0.0,66,0.00,,---,0.00,VWS V14.01,2013-02-17 08:59:00,
2013-02-17 03:05:00,-6.9,-15.2,29.15,SW,226,0.0,0.0,66,0.00,,---,0.00,VWS V14.01,2013-02-17 09:05:00,
2013-02-17 03:10:00,-7.4,-15.8,29.15,SW,226,0.0,0.0,66,0.00,,---,0.00,VWS V14.01,2013-02-17 09:10:00,
2013-02-17 03:16:00,-7.6,-15.9,29.15,SW,226,0.0,0.0,66,0.00,,---,0.00,VWS V14.01,2013-02-17 09:16:00,
2013-02-17 03:22:00,-7.6,-15.9,29.15,SW,226,0.0,0.0,66,0.00,,---,0.00,VWS V14.01,2013-02-17 09:22:00,
2013-02-17 03:28:00,-7.4,-15.8,29.15,SW,226,0.0,0.0,66,0.00,,---,0.00,VWS V14.01,2013-02-17 09:28:00,
2013-02-17 03:33:00,-7.4,-15.8,29.15,SW,226,0.0,0.0,66,0.00,,---,0.00,VWS V14.01,2013-02-17 09:33:00,
2013-02-17 03:38:00,-7.6,-15.9,29.15,SW,226,0.0,0.0,66,0.00,,---,0.00,VWS V14.01,2013-02-17 09:38:00,
2013-02-17 03:44:00,-7.8,-16.1,29.15,SW,226,0.0,0.0,66,0.00,,---,0.00,VWS V14.01,2013-02-17 09:44:00,
2013-02-17 03:50:00,-8.0,-16.3,29.15,SW,226,0.0,0.0,66,0.00,,---,0.00,VWS V14.01,2013-02-17 09:50:00,
2013-02-17 03:56:00,-8.0,-16.3,29.15,SW,226,0.0,0.0,66,0.00,,---,0.00,VWS V14.01,2013-02-17 09:56:00,
2013-02-17 04:01:00,-8.0,-16.3,29.15,SW,226,0.0,0.0,66,0.00,,---,0.00,VWS V14.01,2013-02-17 10:01:00,
2013-02-17 04:06:00,-8.0,-16.3,29.15,SW,226,0.0,0.0,66,0.00,,---,0.00,VWS V14.01,2013-02-17 10:06:00,
2013-02-17 04:12:00,-8.0,-16.3,29.15,SW,226,0.0,0.0,66,0.00,,---,0.00,VWS V14.01,2013-02-17 10:12:00,
2013-02-17 04:18:00,-8.0,-16.3,29.15,SW,226,0.0,0.0,66,0.00,,---,0.00,VWS V14.01,2013-02-17 10:18:00,
2013-02-17 04:23:00,-8.0,-16.3,29.15,SW,226,0.0,0.0,66,0.00,,---,0.00,VWS V14.01,2013-02-17 10:23:00,
2013-02-17 04:28:00,-7.8,-16.1,29.15,SW,226,0.0,0.0,66,0.00,,---,0.00,VWS V14.01,2013-02-17 10:28:00,
2013-02-17 04:34:00,-8.0,-16.3,29.15,SW,226,0.0,0.0,66,0.00,,---,0.00,VWS V14.01,2013-02-17 10:34:00,
2013-02-17 04:39:00,-8.0,-16.3,29.15,SW,226,0.0,0.0,66,0.00,,---,0.00,VWS V14.01,2013-02-17 10:39:00,
2013-02-17 04:45:00,-8.0,-16.3,29.15,SW,226,0.0,0.0,66,0.00,,---,0.00,VWS V14.01,2013-02-17 10:45:00,
2013-02-17 04:51:00,-8.0,-16.3,29.15,SW,226,0.0,0.0,66,0.00,,---,0.00,VWS V14.01,2013-02-17 10:51:00,
2013-02-17 04:57:00,-8.5,-16.8,29.15,SW,226,0.0,0.0,66,0.00,,---,0.00,VWS V14.01,2013-02-17 10:57:00,
2013-02-17 05:02:00,-8.7,-17.0,29.15,SW,226,0.0,0.0,66,0.00,,---,0.00,VWS V14.01,2013-02-17 11:02:00,
2013-02-17 05:08:00,-8.9,-17.1,29.15,SW,226,0.0,0.0,66,0.00,,---,0.00,VWS V14.01,2013-02-17 11:08:00,
2013-02-17 05:14:00,-8.9,-17.1,29.15,SW,226,0.0,0.0,66,0.00,,---,0.00,VWS V14.01,2013-02-17 11:14:00,
2013-02-17 05:20:00,-8.9,-17.1,29.15,SW,226,0.0,0.0,66,0.00,,---,0.00,VWS V14.01,2013-02-17 11:20:00,
2013-02-17 05:25:00,-8.9,-17.1,29.15,SW,226,0.0,0.0,66,0.00,,---,0.00,VWS V14.01,2013-02-17 11:25:00,
2013-02-17 05:30:00,-8.7,-17.0,29.15,SW,226,0.0,0.0,66,0.00,,---,0.00,VWS V14.01,2013-02-17 11:30:00,
2013-02-17 05:36:00,-8.7,-17.0,29.15,SW,226,0.0,0.0,66,0.00,,---,0.00,VWS V14.01,2013-02-17 11:36:00,
2013-02-17 05:42:00,-8.7,-17.0,29.15,SW,226,0.0,0.0,66,0.00,,---,0.00,VWS V14.01,2013-02-17 11:42:00,
2013-02-17 05:47:00,-8.7,-17.0,29.15,SW,226,0.0,0.0,66,0.00,,---,0.00,VWS V14.01,2013-02-17 11:47:00,
2013-02-17 05:52:00,-9.0,-17.3,29.15,SW,226,0.0,0.0,66,0.00,,---,0.00,VWS V14.01,2013-02-17 11:52:00,
2013-02-17 05:57:00,-9.8,-18.0,29.15,SW,226,0.0,0.0,66,0.00,,---,0.00,VWS V14.01,2013-02-17 11:57:00,
2013-02-17 06:02:00,-10.8,-19.0,29.15,SW,226,0.0,0.0,66,0.00,,---,0.00,VWS V14.01,2013-02-17 12:02:00,
2013-02-17 06:07:00,-11.2,-19.4,29.15,SW,226,0.0,0.0,66,0.00,,---,0.00,VWS V14.01,2013-02-17 12:07:00,
2013-02-17 06:13:00,-10.7,-18.9,29.15,SW,226,0.0,0.0,66,0.00,,---,0.00,VWS V14.01,2013-02-17 12:13:00,
2013-02-17 06:18:00,-10.3,-18.5,29.15,SW,226,0.0,0.0,66,0.00,,---,0.00,VWS V14.01,2013-02-17 12:18:00,
2013-02-17 06:24:00,-10.3,-18.5,29.15,SW,226,0.0,0.0,66,0.00,,---,0.00,VWS V14.01,2013-02-17 12:24:00,
2013-02-17 06:29:00,-10.3,-18.5,29.15,SW,226,0.0,0.0,66,0.00,,---,0.00,VWS V14.01,2013-02-17 12:29:00,
2013-02-17 06:35:00,-10.3,-18.5,29.15,SW,226,0.0,0.0,66,0.00,,---,0.00,VWS V14.01,2013-02-17 12:35:00,
2013-02-17 06:41:00,-10.5,-18.7,29.15,SW,226,0.0,0.0,66,0.00,,---,0.00,VWS V14.01,2013-02-17 12:41:00,
2013-02-17 06:47:00,-10.7,-18.9,29.15,SW,226,0.0,0.0,66,0.00,,---,0.00,VWS V14.01,2013-02-17 12:47:00,
2013-02-17 06:52:00,-10.8,-19.0,29.15,SW,226,0.0,0.0,66,0.00,,---,0.00,VWS V14.01,2013-02-17 12:52:00,
2013-02-17 06:58:00,-11.0,-19.2,29.15,SW,226,0.0,0.0,66,0.00,,---,0.00,VWS V14.01,2013-02-17 12:58:00,
2013-02-17 07:03:00,-11.2,-19.4,29.15,SW,226,0.0,0.0,66,0.00,,---,0.00,VWS V14.01,2013-02-17 13:03:00,
2013-02-17 07:09:00,-11.2,-19.4,29.15,SW,226,0.0,0.0,66,0.00,,---,0.00,VWS V14.01,2013-02-17 13:09:00,
2013-02-17 07:14:00,-10.8,-19.0,29.15,SW,226,0.0,0.0,66,0.00,,---,0.00,VWS V14.01,2013-02-17 13:14:00,
2013-02-17 07:20:00,-10.7,-18.9,29.15,SW,226,0.0,0.0,66,0.00,,---,0.00,VWS V14.01,2013-02-17 13:20:00,
2013-02-17 07:26:00,-10.7,-18.9,29.15,SW,226,0.0,0.0,66,0.00,,---,0.00,VWS V14.01,2013-02-17 13:26:00,
2013-02-17 07:31:00,-10.8,-19.0,29.15,SW,226,0.0,0.0,66,0.00,,---,0.00,VWS V14.01,2013-02-17 13:31:00,
2013-02-17 07:37:00,-10.7,-18.9,29.15,SW,226,0.0,0.0,66,0.00,,---,0.00,VWS V14.01,2013-02-17 13:37:00,
2013-02-17 07:42:00,-10.5,-18.7,29.15,SW,226,0.0,0.0,66,0.00,,---,0.00,VWS V14.01,2013-02-17 13:42:00,
2013-02-17 07:48:00,-9.9,-18.2,29.15,SW,226,0.0,0.0,66,0.00,,---,0.00,VWS V14.01,2013-02-17 13:48:00,
2013-02-17 07:53:00,-9.9,-18.2,29.15,SW,226,0.0,0.0,66,0.00,,---,0.00,VWS V14.01,2013-02-17 13:53:00,
2013-02-17 07:58:00,-9.9,-18.2,29.15,SW,226,0.0,0.0,66,0.00,,---,0.00,VWS V14.01,2013-02-17 13:58:00,
2013-02-17 08:04:00,-9.6,-17.8,29.15,SW,226,0.0,0.0,66,0.00,,---,0.00,VWS V14.01,2013-02-17 14:04:00,
2013-02-17 08:09:00,-9.6,-17.8,29.15,SW,226,0.0,0.0,66,0.00,,---,0.00,VWS V14.01,2013-02-17 14:09:00,
2013-02-17 08:15:00,-8.9,-17.1,29.15,SW,226,0.0,0.0,66,0.00,,---,0.00,VWS V14.01,2013-02-17 14:15:00,
2013-02-17 08:20:00,-8.3,-16.6,29.15,SW,226,0.0,0.0,66,0.00,,---,0.00,VWS V14.01,2013-02-17 14:20:00,
2013-02-17 08:25:00,-7.8,-16.1,29.15,SW,226,0.0,0.0,66,0.00,,---,0.00,VWS V14.01,2013-02-17 14:25:00,
2013-02-17 08:31:00,-6.7,-15.1,29.15,SW,226,0.0,0.0,66,0.00,,---,0.00,VWS V14.01,2013-02-17 14:31:00,
2013-02-17 08:36:00,-6.0,-14.4,29.15,SW,226,0.0,0.0,66,0.00,,---,0.00,VWS V14.01,2013-02-17 14:36:00,
2013-02-17 08:42:00,-5.1,-13.5,29.15,SW,226,0.0,0.0,66,0.00,,---,0.00,VWS V14.01,2013-02-17 14:42:00,
2013-02-17 08:47:00,-4.0,-12.5,29.15,SW,226,0.0,0.0,66,0.00,,---,0.00,VWS V14.01,2013-02-17 14:47:00,
2013-02-17 08:52:00,-2.6,-11.1,29.15,SW,226,0.0,0.0,66,0.00,,---,0.00,VWS V14.01,2013-02-17 14:52:00,
2013-02-17 08:57:00,-1.3,-9.9,29.15,SW,226,0.0,0.0,66,0.00,,---,0.00,VWS V14.01,2013-02-17 14:57:00,
2013-02-17 09:02:00,0.1,-8.5,29.15,SW,226,0.0,0.0,66,0.00,,---,0.00,VWS V14.01,2013-02-17 15:02:00,
2013-02-17 09:08:00,1.4,-7.3,29.15,SW,226,0.0,0.0,66,0.00,,---,0.00,VWS V14.01,2013-02-17 15:08:00,
2013-02-17 09:14:00,2.8,-5.9,29.15,SW,226,0.0,0.0,66,0.00,,---,0.00,VWS V14.01,2013-02-17 15:14:00,
2013-02-17 09:20:00,4.1,-4.7,29.15,SW,226,0.0,0.0,66,0.00,,---,0.00,VWS V14.01,2013-02-17 15:20:00,
2013-02-17 09:25:00,5.7,-3.2,29.15,SW,226,0.0,0.0,66,0.00,,---,0.00,VWS V14.01,2013-02-17 15:25:00,
2013-02-17 09:31:00,6.3,-2.7,29.15,SW,226,0.0,0.0,66,0.00,,---,0.00,VWS V14.01,2013-02-17 15:31:00,
2013-02-17 09:36:00,6.8,-2.1,29.15,SW,226,0.0,0.0,66,0.00,,---,0.00,VWS V14.01,2013-02-17 15:36:00,
2013-02-17 09:41:00,7.0,-2.0,29.15,SW,226,0.0,2.7,66,0.00,,---,0.00,VWS V14.01,2013-02-17 15:41:00,
2013-02-17 09:46:00,7.5,-1.5,29.15,SSE,160,2.7,2.7,66,0.00,,---,0.00,VWS V14.01,2013-02-17 15:46:00,
2013-02-17 09:52:00,8.4,-0.6,29.15,East,79,0.0,2.2,66,0.00,,---,0.00,VWS V14.01,2013-02-17 15:52:00,
2013-02-17 09:58:00,9.9,0.8,29.15,ENE,78,4.0,4.0,66,0.00,,---,0.00,VWS V14.01,2013-02-17 15:58:00,
2013-02-17 10:03:00,10.9,1.8,29.15,East,90,3.6,5.8,66,0.00,,---,0.00,VWS V14.01,2013-02-17 16:03:00,
2013-02-17 10:08:00,12.2,3.0,29.15,SE,135,2.7,3.6,66,0.00,,---,0.00,VWS V14.01,2013-02-17 16:08:00,
2013-02-17 10:14:00,13.5,4.2,29.15,East,82,4.9,5.4,66,0.00,,---,0.00,VWS V14.01,2013-02-17 16:14:00,
2013-02-17 10:20:00,14.7,4.4,29.15,WSW,250,2.2,2.2,63,0.00,,---,0.00,VWS V14.01,2013-02-17 16:20:00,
2013-02-17 10:25:00,16.0,5.6,29.15,ENE,61,5.4,5.4,63,0.00,,---,0.00,VWS V14.01,2013-02-17 16:25:00,
2013-02-17 10:30:00,16.2,5.8,29.15,SW,222,3.6,4.9,63,0.00,,---,0.00,VWS V14.01,2013-02-17 16:30:00,
2013-02-17 10:35:00,16.3,6.0,29.15,SW,223,3.6,5.8,63,0.00,,---,0.00,VWS V14.01,2013-02-17 16:35:00,
2013-02-17 10:41:00,16.2,5.8,29.15,WSW,252,3.1,4.9,63,0.00,,---,0.00,VWS V14.01,2013-02-17 16:41:00,
2013-02-17 10:47:00,16.7,6.3,29.15,WNW,284,3.6,5.8,63,0.00,,---,0.00,VWS V14.01,2013-02-17 16:47:00,
2013-02-17 10:52:00,16.3,6.0,29.15,SW,224,3.1,4.9,63,0.00,,---,0.00,VWS V14.01,2013-02-17 16:52:00,
2013-02-17 10:58:00,16.3,6.0,29.15,SSW,209,3.6,3.6,63,0.00,,---,0.00,VWS V14.01,2013-02-17 16:58:00,
2013-02-17 11:03:00,16.7,6.3,29.15,NNE,16,2.7,3.1,63,0.00,,---,0.00,VWS V14.01,2013-02-17 17:03:00,
2013-02-17 11:09:00,17.6,7.2,29.15,NE,49,2.2,3.1,63,0.00,,---,0.00,VWS V14.01,2013-02-17 17:09:00,
2013-02-17 11:15:00,18.1,6.6,29.15,WNW,294,0.0,5.4,60,0.00,,---,0.00,VWS V14.01,2013-02-17 17:15:00,
2013-02-17 11:21:00,18.7,7.1,29.15,WSW,246,3.6,5.4,60,0.00,,---,0.00,VWS V14.01,2013-02-17 17:21:00,
2013-02-17 11:26:00,19.6,8.0,29.15,West,263,2.7,3.6,60,0.00,,---,0.00,VWS V14.01,2013-02-17 17:26:00,
2013-02-17 11:31:00,20.7,9.0,29.15,East,101,3.6,5.8,60,0.00,,---,0.00,VWS V14.01,2013-02-17 17:31:00,
2013-02-17 11:37:00,21.9,10.2,29.15,North,357,4.0,4.0,60,0.00,,---,0.00,VWS V14.01,2013-02-17 17:37:00,
2013-02-17 11:42:00,22.8,11.0,29.15,East,93,0.0,0.0,60,0.00,,---,0.00,VWS V14.01,2013-02-17 17:42:00,
2013-02-17 11:48:00,22.6,10.9,29.15,NNW,339,2.7,4.0,60,0.00,,---,0.00,VWS V14.01,2013-02-17 17:48:00,
2013-02-17 11:54:00,21.7,10.0,29.15,SSW,209,3.1,4.0,60,0.00,,---,0.00,VWS V14.01,2013-02-17 17:54:00,
2013-02-17 12:00:00,21.4,9.7,29.12,NNW,328,2.7,4.0,60,0.00,,---,0.00,VWS V14.01,2013-02-17 18:00:00,
2013-02-17 12:05:00,21.9,10.2,29.12,NW,309,0.0,3.1,60,0.00,,---,0.00,VWS V14.01,2013-02-17 18:05:00,
2013-02-17 12:11:00,21.2,9.5,29.12,East,86,0.0,2.2,60,0.00,,---,0.00,VWS V14.01,2013-02-17 18:11:00,
2013-02-17 12:17:00,21.4,9.7,29.12,ENE,71,4.9,4.9,60,0.00,,---,0.00,VWS V14.01,2013-02-17 18:17:00,
2013-02-17 12:22:00,21.4,9.7,29.12,SSW,203,5.4,5.4,60,0.00,,---,0.00,VWS V14.01,2013-02-17 18:22:00,
2013-02-17 12:27:00,21.6,9.8,29.12,NNW,333,4.0,4.0,60,0.00,,---,0.00,VWS V14.01,2013-02-17 18:27:00,
2013-02-17 12:33:00,21.9,10.2,29.12,NE,54,2.7,2.7,60,0.00,,---,0.00,VWS V14.01,2013-02-17 18:33:00,
2013-02-17 12:38:00,22.8,11.0,29.12,WNW,296,5.4,5.4,60,0.00,,---,0.00,VWS V14.01,2013-02-17 18:38:00,
2013-02-17 12:44:00,23.2,10.2,29.12,East,95,3.6,5.4,57,0.00,,---,0.00,VWS V14.01,2013-02-17 18:44:00,
2013-02-17 12:50:00,24.3,11.2,29.12,East,86,5.8,5.8,57,0.00,,---,0.00,VWS V14.01,2013-02-17 18:50:00,
2013-02-17 12:55:00,23.2,10.2,29.12,SSE,150,4.9,6.3,57,0.00,,---,0.00,VWS V14.01,2013-02-17 18:55:00,
2013-02-17 13:01:00,23.9,10.9,29.09,SSE,165,2.7,3.6,57,0.00,,---,0.00,VWS V14.01,2013-02-17 19:01:00,
2013-02-17 13:07:00,25.3,12.2,29.09,SW,230,3.6,7.6,57,0.00,,---,0.00,VWS V14.01,2013-02-17 19:07:00,
2013-02-17 13:13:00,26.1,12.9,29.09,WNW,303,0.0,4.0,57,0.00,,---,0.00,VWS V14.01,2013-02-17 19:13:00,
2013-02-17 13:18:00,25.9,12.8,29.09,East,82,4.0,4.0,57,0.00,,---,0.00,VWS V14.01,2013-02-17 19:18:00,
2013-02-17 13:23:00,25.9,12.8,29.09,NNW,339,2.7,4.9,57,0.00,,---,0.00,VWS V14.01,2013-02-17 19:23:00,
2013-02-17 13:28:00,25.7,12.6,29.09,ENE,73,2.2,3.6,57,0.00,,---,0.00,VWS V14.01,2013-02-17 19:28:00,
2013-02-17 13:34:00,25.0,11.9,29.09,NW,308,2.2,3.1,57,0.00,,---,0.00,VWS V14.01,2013-02-17 19:34:00,
2013-02-17 13:39:00,24.6,11.6,29.09,East,85,3.6,4.9,57,0.00,,---,0.00,VWS V14.01,2013-02-17 19:39:00,
2013-02-17 13:44:00,25.2,12.1,29.09,ESE,113,5.8,5.8,57,0.00,,---,0.00,VWS V14.01,2013-02-17 19:44:00,
2013-02-17 13:50:00,25.3,12.2,29.09,South,191,2.7,4.0,57,0.00,,---,0.00,VWS V14.01,2013-02-17 19:50:00,
2013-02-17 13:56:00,25.2,12.1,29.09,SSE,153,5.8,5.8,57,0.00,,---,0.00,VWS V14.01,2013-02-17 19:56:00,
2013-02-17 14:02:00,25.0,11.9,29.09,West,274,2.7,3.6,57,0.00,,---,0.00,VWS V14.01,2013-02-17 20:02:00,
2013-02-17 14:07:00,25.0,11.9,29.09,SSE,162,3.1,4.0,57,0.00,,---,0.00,VWS V14.01,2013-02-17 20:07:00,
2013-02-17 14:12:00,24.6,11.6,29.09,WNW,292,3.6,4.9,57,0.00,,---,0.00,VWS V14.01,2013-02-17 20:12:00,
2013-02-17 14:18:00,25.2,12.1,29.06,West,260,2.7,5.4,57,0.00,,---,0.00,VWS V14.01,2013-02-17 20:18:00,
2013-02-17 14:24:00,25.0,11.9,29.06,WSW,251,3.1,3.1,57,0.00,,---,0.00,VWS V14.01,2013-02-17 20:24:00,
2013-02-17 14:29:00,24.8,11.7,29.06,North,353,2.7,3.6,57,0.00,,---,0.00,VWS V14.01,2013-02-17 20:29:00,
2013-02-17 14:35:00,24.8,11.7,29.06,NNE,32,3.1,3.6,57,0.00,,---,0.00,VWS V14.01,2013-02-17 20:35:00,
2013-02-17 14:40:00,24.8,11.7,29.06,ESE,118,3.1,5.4,57,0.00,,---,0.00,VWS V14.01,2013-02-17 20:40:00,
2013-02-17 14:46:00,24.4,11.4,29.06,SE,141,4.9,4.9,57,0.00,,---,0.00,VWS V14.01,2013-02-17 20:46:00,
2013-02-17 14:52:00,24.3,11.2,29.06,ESE,110,2.2,8.3,57,0.00,,---,0.00,VWS V14.01,2013-02-17 20:52:00,
2013-02-17 14:58:00,24.6,11.6,29.06,SW,233,3.6,4.0,57,0.00,,---,0.00,VWS V14.01,2013-02-17 20:58:00,
2013-02-17 15:03:00,24.4,11.4,29.06,SE,129,3.6,3.6,57,0.00,,---,0.00,VWS V14.01,2013-02-17 21:03:00,
2013-02-17 15:08:00,23.7,10.7,29.06,NE,56,5.4,5.8,57,0.00,,---,0.00,VWS V14.01,2013-02-17 21:08:00,
2013-02-17 15:14:00,23.2,10.2,29.06,South,183,3.1,7.6,57,0.00,,---,0.00,VWS V14.01,2013-02-17 21:14:00,
2013-02-17 15:20:00,22.8,11.0,29.06,ESE,104,3.6,6.7,60,0.00,,---,0.00,VWS V14.01,2013-02-17 21:20:00,
2013-02-17 15:26:00,22.3,10.5,29.06,SW,227,0.0,3.6,60,0.00,,---,0.00,VWS V14.01,2013-02-17 21:26:00,
2013-02-17 15:31:00,22.1,10.4,29.06,SE,126,4.0,7.6,60,0.00,,---,0.00,VWS V14.01,2013-02-17 21:31:00,
2013-02-17 15:36:00,21.9,10.2,29.06,ENE,75,4.9,5.4,60,0.00,,---,0.00,VWS V14.01,2013-02-17 21:36:00,
2013-02-17 15:41:00,21.6,9.8,29.06,ENE,74,3.6,4.9,60,0.00,,---,0.00,VWS V14.01,2013-02-17 21:41:00,
2013-02-17 15:47:00,21.4,9.7,29.03,NE,48,3.6,3.6,60,0.00,,---,0.00,VWS V14.01,2013-02-17 21:47:00,
2013-02-17 15:53:00,21.0,9.3,29.03,North,357,2.2,2.7,60,0.00,,---,0.00,VWS V14.01,2013-02-17 21:53:00,
2013-02-17 15:59:00,20.7,9.0,29.03,East,89,5.4,5.4,60,0.00,,---,0.00,VWS V14.01,2013-02-17 21:59:00,
2013-02-17 16:04:00,20.7,9.0,29.03,NNW,348,0.0,2.7,60,0.00,,---,0.00,VWS V14.01,2013-02-17 22:04:00,
2013-02-17 16:10:00,20.8,9.2,29.03,ESE,103,0.0,3.6,60,0.00,,---,0.00,VWS V14.01,2013-02-17 22:10:00,
2013-02-17 16:15:00,20.5,8.8,29.03,NE,56,0.0,3.1,60,0.00,,---,0.00,VWS V14.01,2013-02-17 22:15:00,
2013-02-17 16:20:00,20.3,8.6,29.03,North,350,2.2,4.9,60,0.00,,---,0.00,VWS V14.01,2013-02-17 22:20:00,
2013-02-17 16:25:00,19.9,8.3,29.03,South,169,4.0,4.0,60,0.00,,---,0.00,VWS V14.01,2013-02-17 22:25:00,
2013-02-17 16:31:00,19.6,8.0,29.03,ENE,77,2.7,3.6,60,0.00,,---,0.00,VWS V14.01,2013-02-17 22:31:00,
2013-02-17 16:37:00,19.2,7.6,29.03,ESE,119,3.1,4.9,60,0.00,,---,0.00,VWS V14.01,2013-02-17 22:37:00,
2013-02-17 16:42:00,18.9,7.3,29.03,NNE,21,2.2,2.7,60,0.00,,---,0.00,VWS V14.01,2013-02-17 22:42:00,
2013-02-17 16:48:00,18.3,6.8,29.03,East,98,0.0,4.0,60,0.00,,---,0.00,VWS V14.01,2013-02-17 22:48:00,
2013-02-17 16:53:00,17.8,6.3,29.03,ESE,119,3.6,5.8,60,0.00,,---,0.00,VWS V14.01,2013-02-17 22:53:00,
2013-02-17 16:59:00,17.4,7.0,29.03,ENE,68,3.6,3.6,63,0.00,,---,0.00,VWS V14.01,2013-02-17 22:59:00,
2013-02-17 17:04:00,16.7,6.3,29.03,East,93,2.7,4.0,63,0.00,,---,0.00,VWS V14.01,2013-02-17 23:04:00,
2013-02-17 17:10:00,16.0,5.6,29.03,SE,130,6.3,6.3,63,0.00,,---,0.00,VWS V14.01,2013-02-17 23:10:00,
2013-02-17 17:16:00,15.6,5.3,29.00,ENE,74,3.6,4.9,63,0.00,,---,0.00,VWS V14.01,2013-02-17 23:16:00,
2013-02-17 17:21:00,15.4,5.1,29.00,NE,54,3.6,5.8,63,0.00,,---,0.00,VWS V14.01,2013-02-17 23:21:00,
2013-02-17 17:27:00,15.1,4.8,29.00,East,79,3.6,5.4,63,0.00,,---,0.00,VWS V14.01,2013-02-17 23:27:00,
2013-02-17 17:33:00,14.9,4.6,29.03,ENE,60,2.2,3.6,63,0.00,,---,0.00,VWS V14.01,2013-02-17 23:33:00,
2013-02-17 17:39:00,14.7,4.4,29.03,ENE,75,3.1,3.6,63,0.00,,---,0.00,VWS V14.01,2013-02-17 23:39:00,
2013-02-17 17:44:00,14.4,4.1,29.03,NE,56,3.6,4.0,63,0.00,,---,0.00,VWS V14.01,2013-02-17 23:44:00,
2013-02-17 17:50:00,13.8,4.6,29.00,ENE,61,2.2,2.7,66,0.00,,---,0.00,VWS V14.01,2013-02-17 23:50:00,
2013-02-17 17:55:00,13.6,4.4,29.00,NE,40,2.7,2.7,66,0.00,,---,0.00,VWS V14.01,2013-02-17 23:55:00,
2013-02-17 18:01:00,13.6,4.4,29.00,North,357,2.7,2.7,66,0.00,,---,0.00,VWS V14.01,2013-02-18 00:01:00,
2013-02-17 18:07:00,13.6,4.4,29.00,ENE,62,2.2,2.7,66,0.00,,---,0.00,VWS V14.01,2013-02-18 00:07:00,
2013-02-17 18:13:00,13.6,4.4,29.00,NNE,21,0.0,2.7,66,0.00,,---,0.00,VWS V14.01,2013-02-18 00:13:00,
2013-02-17 18:19:00,13.5,4.2,29.03,NE,55,2.7,2.7,66,0.00,,---,0.00,VWS V14.01,2013-02-18 00:19:00,
2013-02-17 18:24:00,13.6,4.4,29.03,ENE,60,2.2,3.1,66,0.00,,---,0.00,VWS V14.01,2013-02-18 00:24:00,
2013-02-17 18:30:00,13.8,4.6,29.03,NNE,21,2.7,2.7,66,0.00,,---,0.00,VWS V14.01,2013-02-18 00:30:00,
2013-02-17 18:36:00,13.8,4.6,29.03,East,83,0.0,2.7,66,0.00,,---,0.00,VWS V14.01,2013-02-18 00:36:00,
2013-02-17 18:41:00,13.8,4.6,29.03,ENE,78,3.6,4.9,66,0.00,,---,0.00,VWS V14.01,2013-02-18 00:41:00,
2013-02-17 18:46:00,14.0,4.8,29.00,East,84,0.0,3.6,66,0.00,,---,0.00,VWS V14.01,2013-02-18 00:46:00,
2013-02-17 18:51:00,14.2,3.9,29.00,East,83,0.0,2.7,63,0.00,,---,0.00,VWS V14.01,2013-02-18 00:51:00,
2013-02-17 18:57:00,14.2,3.9,29.00,ENE,58,3.1,3.6,63,0.00,,---,0.00,VWS V14.01,2013-02-18 00:57:00,
2013-02-17 19:02:00,14.2,3.9,29.00,ENE,62,3.1,3.1,63,0.00,,---,0.00,VWS V14.01,2013-02-18 01:02:00,
2013-02-17 19:07:00,14.2,3.9,29.00,SSE,157,3.6,4.0,63,0.00,,---,0.00,VWS V14.01,2013-02-18 01:07:00,
2013-02-17 19:13:00,14.2,3.9,29.00,ENE,61,0.0,0.0,63,0.00,,---,0.00,VWS V14.01,2013-02-18 01:13:00,
2013-02-17 19:19:00,14.2,3.9,29.00,East,82,4.9,4.9,63,0.00,,---,0.00,VWS V14.01,2013-02-18 01:19:00,
2013-02-17 19:24:00,14.2,3.9,29.00,ENE,78,2.2,3.1,63,0.00,,---,0.00,VWS V14.01,2013-02-18 01:24:00,
2013-02-17 19:29:00,14.2,3.9,29.00,ENE,74,3.1,3.1,63,0.00,,---,0.00,VWS V14.01,2013-02-18 01:29:00,
2013-02-17 19:35:00,14.2,3.9,29.00,ENE,76,2.2,2.7,63,0.00,,---,0.00,VWS V14.01,2013-02-18 01:35:00,
2013-02-17 19:40:00,14.2,3.9,29.00,East,81,2.7,3.6,63,0.00,,---,0.00,VWS V14.01,2013-02-18 01:40:00,
2013-02-17 19:46:00,14.2,3.9,29.00,ENE,68,3.6,3.6,63,0.00,,---,0.00,VWS V14.01,2013-02-18 01:46:00,
2013-02-17 19:51:00,14.2,3.9,29.00,ENE,59,3.6,4.0,63,0.00,,---,0.00,VWS V14.01,2013-02-18 01:51:00,
2013-02-17 19:57:00,14.0,4.8,29.00,ENE,67,4.5,4.5,66,0.00,,---,0.00,VWS V14.01,2013-02-18 01:57:00,
2013-02-17 20:03:00,13.8,4.6,28.97,ENE,65,3.1,4.0,66,0.00,,---,0.00,VWS V14.01,2013-02-18 02:03:00,
2013-02-17 20:08:00,13.6,4.4,28.97,East,89,2.7,3.6,66,0.00,,---,0.00,VWS V14.01,2013-02-18 02:08:00,
2013-02-17 20:14:00,13.6,4.4,28.97,ENE,72,3.1,3.6,66,0.00,,---,0.00,VWS V14.01,2013-02-18 02:14:00,
2013-02-17 20:19:00,13.5,4.2,28.97,ENE,69,2.7,4.0,66,0.00,,---,0.00,VWS V14.01,2013-02-18 02:19:00,
2013-02-17 20:25:00,13.3,4.1,28.97,ENE,59,2.2,2.7,66,0.00,,---,0.00,VWS V14.01,2013-02-18 02:25:00,
2013-02-17 20:31:00,13.3,4.1,28.97,ENE,59,0.0,0.0,66,0.00,,---,0.00,VWS V14.01,2013-02-18 02:31:00,
2013-02-17 20:36:00,12.9,3.7,28.97,ENE,59,0.0,0.0,66,0.00,,---,0.00,VWS V14.01,2013-02-18 02:36:00,
2013-02-17 20:42:00,12.9,3.7,28.97,ENE,59,0.0,0.0,66,0.00,,---,0.00,VWS V14.01,2013-02-18 02:42:00,
2013-02-17 20:47:00,12.9,3.7,28.97,ENE,59,0.0,0.0,66,0.00,,---,0.00,VWS V14.01,2013-02-18 02:47:00,
2013-02-17 20:53:00,12.9,3.7,28.97,ENE,74,3.1,3.6,66,0.00,,---,0.00,VWS V14.01,2013-02-18 02:53:00,
2013-02-17 20:59:00,13.1,3.9,28.97,ENE,73,3.6,4.0,66,0.00,,---,0.00,VWS V14.01,2013-02-18 02:59:00,
2013-02-17 21:04:00,13.3,4.1,28.97,East,80,3.6,4.0,66,0.00,,---,0.00,VWS V14.01,2013-02-18 03:04:00,
2013-02-17 21:10:00,13.5,4.2,28.97,East,86,3.1,3.1,66,0.00,,---,0.00,VWS V14.01,2013-02-18 03:10:00,
2013-02-17 21:15:00,13.3,4.1,28.97,East,85,2.2,3.6,66,0.00,,---,0.00,VWS V14.01,2013-02-18 03:15:00,
2013-02-17 21:21:00,13.3,4.1,28.97,ENE,73,0.0,2.7,66,0.00,,---,0.00,VWS V14.01,2013-02-18 03:21:00,
2013-02-17 21:27:00,13.3,4.1,28.97,East,88,0.0,3.1,66,0.00,,---,0.00,VWS V14.01,2013-02-18 03:27:00,
2013-02-17 21:32:00,13.5,4.2,28.94,East,95,4.5,4.5,66,0.00,,---,0.00,VWS V14.01,2013-02-18 03:32:00,
2013-02-17 21:37:00,13.5,4.2,28.94,East,90,4.9,5.8,66,0.00,,---,0.00,VWS V14.01,2013-02-18 03:37:00,
2013-02-17 21:42:00,13.6,4.4,28.94,East,82,4.0,4.9,66,0.00,,---,0.00,VWS V14.01,2013-02-18 03:42:00,
2013-02-17 21:48:00,13.8,4.6,28.97,ENE,61,4.0,4.5,66,0.00,,---,0.00,VWS V14.01,2013-02-18 03:48:00,
2013-02-17 21:53:00,14.0,4.8,28.97,ENE,60,0.0,2.2,66,0.00,,---,0.00,VWS V14.01,2013-02-18 03:53:00,
2013-02-17 21:59:00,14.2,3.9,28.97,East,84,3.1,3.6,63,0.00,,---,0.00,VWS V14.01,2013-02-18 03:59:00,
2013-02-17 22:04:00,14.4,4.1,28.94,East,83,2.7,4.0,63,0.00,,---,0.00,VWS V14.01,2013-02-18 04:04:00,
2013-02-17 22:10:00,14.4,4.1,28.94,East,79,2.7,4.0,63,0.00,,---,0.00,VWS V14.01,2013-02-18 04:10:00,
2013-02-17 22:15:00,14.5,4.2,28.94,NE,51,3.1,3.1,63,0.00,,---,0.00,VWS V14.01,2013-02-18 04:15:00,
2013-02-17 22:21:00,14.9,4.6,28.94,ENE,63,0.0,0.0,63,0.00,,---,0.00,VWS V14.01,2013-02-18 04:21:00,
2013-02-17 22:27:00,14.9,4.6,28.94,ENE,68,4.0,4.9,63,0.00,,---,0.00,VWS V14.01,2013-02-18 04:27:00,
2013-02-17 22:32:00,15.1,4.8,28.91,ENE,77,3.6,5.4,63,0.00,,---,0.00,VWS V14.01,2013-02-18 04:32:00,
2013-02-17 22:38:00,15.3,4.9,28.91,ENE,64,2.7,4.9,63,0.00,,---,0.00,VWS V14.01,2013-02-18 04:38:00,
2013-02-17 22:44:00,15.4,5.1,28.91,East,89,2.2,4.9,63,0.00,,---,0.00,VWS V14.01,2013-02-18 04:44:00,
2013-02-17 22:49:00,15.6,5.3,28.94,East,98,0.0,2.7,63,0.00,,---,0.00,VWS V14.01,2013-02-18 04:49:00,
2013-02-17 22:55:00,15.8,5.4,28.94,ENE,76,0.0,3.6,63,0.00,,---,0.00,VWS V14.01,2013-02-18 04:55:00,
2013-02-17 23:00:00,16.0,5.6,28.94,NE,47,3.1,3.6,63,0.00,,---,0.00,VWS V14.01,2013-02-18 05:00:00,
2013-02-17 23:01:00,16.0,5.6,28.94,ENE,76,4.0,4.9,63,0.00,,---,0.00,VWS V14.01,2013-02-18 05:01:00,
2013-02-17 23:03:00,16.0,5.6,28.94,ENE,76,4.9,5.4,63,0.00,,---,0.00,VWS V14.01,2013-02-18 05:03:00,
2013-02-17 23:08:00,16.2,5.8,28.94,NE,46,0.0,0.0,63,0.00,,---,0.00,VWS V14.01,2013-02-18 05:08:00,
2013-02-17 23:11:00,16.2,5.8,28.94,NE,55,2.2,3.1,63,0.00,,---,0.00,VWS V14.01,2013-02-18 05:11:00,
2013-02-17 23:17:00,16.3,6.0,28.94,ENE,64,3.1,4.0,63,0.00,,---,0.00,VWS V14.01,2013-02-18 05:17:00,
2013-02-17 23:22:00,16.5,6.1,28.94,NE,45,2.7,3.1,63,0.00,,---,0.00,VWS V14.01,2013-02-18 05:22:00,
2013-02-17 23:27:00,16.7,6.3,28.94,East,92,3.1,3.6,63,0.00,,---,0.00,VWS V14.01,2013-02-18 05:27:00,
2013-02-17 23:33:00,16.7,6.3,28.91,NE,45,2.7,2.7,63,0.00,,---,0.00,VWS V14.01,2013-02-18 05:33:00,
2013-02-17 23:38:00,16.9,6.5,28.91,East,85,0.0,2.7,63,0.00,,---,0.00,VWS V14.01,2013-02-18 05:38:00,
2013-02-17 23:44:00,16.9,6.5,28.91,NE,49,0.0,0.0,63,0.00,,---,0.00,VWS V14.01,2013-02-18 05:44:00,
2013-02-17 23:49:00,16.7,6.3,28.91,East,81,4.0,4.0,63,0.00,,---,0.00,VWS V14.01,2013-02-18 05:49:00,
2013-02-17 23:55:00,16.7,6.3,28.91,ENE,70,3.1,4.0,63,0.00,,---,0.00,VWS V14.01,2013-02-18 05:55:00,